Year,Month,Day,Hour,Minute,Value (Times are PST for temperature in C)
2018,04,22,00,00,5.10
2018,04,22,00,01,5.00
2018,04,22,00,02,5.00
2018,04,22,00,03,5.00
2018,04,22,00,04,5.00
2018,04,22,00,05,5.00
2018,04,22,00,06,4.90
2018,04,22,00,07,4.90
2018,04,22,00,08,4.90
2018,04,22,00,09,4.90
2018,04,22,00,10,4.90
2018,04,22,00,11,4.90
2018,04,22,00,12,4.90
2018,04,22,00,13,4.80
2018,04,22,00,14,4.80
2018,04,22,00,15,4.80
2018,04,22,00,16,4.80
2018,04,22,00,17,4.80
2018,04,22,00,18,4.80
2018,04,22,00,19,4.80
2018,04,22,00,20,4.80
2018,04,22,00,21,4.70
2018,04,22,00,22,4.70
2018,04,22,00,23,4.70
2018,04,22,00,24,4.70
2018,04,22,00,25,4.70
2018,04,22,00,26,4.70
2018,04,22,00,27,4.70
2018,04,22,00,28,4.70
2018,04,22,00,29,4.60
2018,04,22,00,30,4.60
2018,04,22,00,31,4.60
2018,04,22,00,32,4.50
2018,04,22,00,33,4.50
2018,04,22,00,34,4.50
2018,04,22,00,35,4.50
2018,04,22,00,36,4.40
2018,04,22,00,37,4.40
2018,04,22,00,38,4.40
2018,04,22,00,39,4.40
2018,04,22,00,40,4.40
2018,04,22,00,41,4.40
2018,04,22,00,42,4.30
2018,04,22,00,43,4.30
2018,04,22,00,44,4.30
2018,04,22,00,45,4.30
2018,04,22,00,46,4.30
2018,04,22,00,47,4.30
2018,04,22,00,48,4.30
2018,04,22,00,49,4.30
2018,04,22,00,50,4.30
2018,04,22,00,51,4.30
2018,04,22,00,52,4.30
2018,04,22,00,53,4.30
2018,04,22,00,54,4.20
2018,04,22,00,55,4.20
2018,04,22,00,56,4.20
2018,04,22,00,57,4.20
2018,04,22,00,58,4.20
2018,04,22,00,59,4.20
2018,04,22,01,00,4.20
2018,04,22,01,01,4.20
2018,04,22,01,02,4.20
2018,04,22,01,03,4.20
2018,04,22,01,04,4.20
2018,04,22,01,05,4.20
2018,04,22,01,06,4.20
2018,04,22,01,07,4.20
2018,04,22,01,08,4.20
2018,04,22,01,09,4.10
2018,04,22,01,10,4.10
2018,04,22,01,11,4.10
2018,04,22,01,12,4.10
2018,04,22,01,13,4.10
2018,04,22,01,14,4.10
2018,04,22,01,15,4.10
2018,04,22,01,16,4.00
2018,04,22,01,17,4.00
2018,04,22,01,18,4.00
2018,04,22,01,19,4.00
2018,04,22,01,20,4.00
2018,04,22,01,21,4.00
2018,04,22,01,22,4.00
2018,04,22,01,23,4.00
2018,04,22,01,24,4.00
2018,04,22,01,25,4.00
2018,04,22,01,26,4.00
2018,04,22,01,27,4.00
2018,04,22,01,28,4.00
2018,04,22,01,29,4.00
2018,04,22,01,30,4.00
2018,04,22,01,31,4.00
2018,04,22,01,32,3.90
2018,04,22,01,33,3.90
2018,04,22,01,34,3.90
2018,04,22,01,35,3.90
2018,04,22,01,36,3.90
2018,04,22,01,37,3.90
2018,04,22,01,38,3.90
2018,04,22,01,39,3.90
2018,04,22,01,40,3.80
2018,04,22,01,41,3.80
2018,04,22,01,42,3.80
2018,04,22,01,43,3.80
2018,04,22,01,44,3.80
2018,04,22,01,45,3.80
2018,04,22,01,46,3.80
2018,04,22,01,47,3.80
2018,04,22,01,48,3.80
2018,04,22,01,49,3.80
2018,04,22,01,50,3.80
2018,04,22,01,51,3.80
2018,04,22,01,52,3.90
2018,04,22,01,53,3.90
2018,04,22,01,54,3.90
2018,04,22,01,55,3.90
2018,04,22,01,56,3.90
2018,04,22,01,57,3.90
2018,04,22,01,58,3.90
2018,04,22,01,59,3.90
2018,04,22,02,00,3.90
2018,04,22,02,01,3.80
2018,04,22,02,02,3.80
2018,04,22,02,03,3.80
2018,04,22,02,04,3.80
2018,04,22,02,05,3.80
2018,04,22,02,06,3.70
2018,04,22,02,07,3.70
2018,04,22,02,08,3.70
2018,04,22,02,09,3.60
2018,04,22,02,10,3.60
2018,04,22,02,11,3.60
2018,04,22,02,12,3.60
2018,04,22,02,13,3.60
2018,04,22,02,14,3.50
2018,04,22,02,15,3.50
2018,04,22,02,16,3.50
2018,04,22,02,17,3.50
2018,04,22,02,18,3.40
2018,04,22,02,19,3.40
2018,04,22,02,20,3.40
2018,04,22,02,21,3.40
2018,04,22,02,22,3.40
2018,04,22,02,23,3.40
2018,04,22,02,24,3.30
2018,04,22,02,25,3.30
2018,04,22,02,26,3.30
2018,04,22,02,27,3.30
2018,04,22,02,28,3.30
2018,04,22,02,29,3.30
2018,04,22,02,30,3.30
2018,04,22,02,31,3.30
2018,04,22,02,32,3.30
2018,04,22,02,33,3.30
2018,04,22,02,34,3.30
2018,04,22,02,35,3.30
2018,04,22,02,36,3.30
2018,04,22,02,37,3.20
2018,04,22,02,38,3.20
2018,04,22,02,39,3.20
2018,04,22,02,40,3.20
2018,04,22,02,41,3.20
2018,04,22,02,42,3.20
2018,04,22,02,43,3.10
2018,04,22,02,44,3.10
2018,04,22,02,45,3.10
2018,04,22,02,46,3.10
2018,04,22,02,47,3.10
2018,04,22,02,48,3.00
2018,04,22,02,49,3.00
2018,04,22,02,50,3.00
2018,04,22,02,51,3.00
2018,04,22,02,52,3.00
2018,04,22,02,53,3.00
2018,04,22,02,54,3.10
2018,04,22,02,55,3.10
2018,04,22,02,56,3.10
2018,04,22,02,57,3.10
2018,04,22,02,58,3.10
2018,04,22,02,59,3.10
2018,04,22,03,00,3.10
2018,04,22,03,01,3.10
2018,04,22,03,02,3.10
2018,04,22,03,03,3.10
2018,04,22,03,04,3.10
2018,04,22,03,05,3.10
2018,04,22,03,06,3.10
2018,04,22,03,07,3.10
2018,04,22,03,08,3.10
2018,04,22,03,09,3.20
2018,04,22,03,10,3.20
2018,04,22,03,11,3.10
2018,04,22,03,12,3.10
2018,04,22,03,13,3.10
2018,04,22,03,14,3.10
2018,04,22,03,15,3.10
2018,04,22,03,16,3.10
2018,04,22,03,17,3.10
2018,04,22,03,18,3.10
2018,04,22,03,19,3.10
2018,04,22,03,20,3.10
2018,04,22,03,21,3.10
2018,04,22,03,22,3.10
2018,04,22,03,23,3.10
2018,04,22,03,24,3.20
2018,04,22,03,25,3.20
2018,04,22,03,26,3.20
2018,04,22,03,27,3.20
2018,04,22,03,28,3.20
2018,04,22,03,29,3.20
2018,04,22,03,30,3.20
2018,04,22,03,31,3.20
2018,04,22,03,32,3.20
2018,04,22,03,33,3.20
2018,04,22,03,34,3.20
2018,04,22,03,35,3.20
2018,04,22,03,36,3.20
2018,04,22,03,37,3.20
2018,04,22,03,38,3.20
2018,04,22,03,39,3.20
2018,04,22,03,40,3.20
2018,04,22,03,41,3.20
2018,04,22,03,42,3.20
2018,04,22,03,43,3.20
2018,04,22,03,44,3.20
2018,04,22,03,45,3.20
2018,04,22,03,46,3.20
2018,04,22,03,47,3.20
2018,04,22,03,48,3.30
2018,04,22,03,49,3.30
2018,04,22,03,50,3.20
2018,04,22,03,51,3.20
2018,04,22,03,52,3.20
2018,04,22,03,53,3.20
2018,04,22,03,54,3.20
2018,04,22,03,55,3.20
2018,04,22,03,56,3.20
2018,04,22,03,57,3.20
2018,04,22,03,58,3.20
2018,04,22,03,59,3.20
2018,04,22,04,00,3.10
2018,04,22,04,01,3.10
2018,04,22,04,02,3.10
2018,04,22,04,03,3.10
2018,04,22,04,04,3.10
2018,04,22,04,05,3.10
2018,04,22,04,06,3.00
2018,04,22,04,07,3.00
2018,04,22,04,08,3.00
2018,04,22,04,09,3.00
2018,04,22,04,10,3.00
2018,04,22,04,11,3.00
2018,04,22,04,12,3.00
2018,04,22,04,13,2.90
2018,04,22,04,14,2.90
2018,04,22,04,15,2.90
2018,04,22,04,16,2.90
2018,04,22,04,17,2.90
2018,04,22,04,18,2.90
2018,04,22,04,19,2.90
2018,04,22,04,20,2.90
2018,04,22,04,21,2.80
2018,04,22,04,22,2.80
2018,04,22,04,23,2.80
2018,04,22,04,24,2.80
2018,04,22,04,25,2.80
2018,04,22,04,26,2.80
2018,04,22,04,27,2.80
2018,04,22,04,28,2.80
2018,04,22,04,29,2.80
2018,04,22,04,30,2.80
2018,04,22,04,31,2.80
2018,04,22,04,32,2.80
2018,04,22,04,33,2.70
2018,04,22,04,34,2.70
2018,04,22,04,35,2.70
2018,04,22,04,36,2.70
2018,04,22,04,37,2.70
2018,04,22,04,38,2.70
2018,04,22,04,39,2.70
2018,04,22,04,40,2.70
2018,04,22,04,41,2.70
2018,04,22,04,42,2.70
2018,04,22,04,43,2.70
2018,04,22,04,44,2.70
2018,04,22,04,45,2.70
2018,04,22,04,46,2.60
2018,04,22,04,47,2.60
2018,04,22,04,48,2.60
2018,04,22,04,49,2.60
2018,04,22,04,50,2.60
2018,04,22,04,51,2.50
2018,04,22,04,52,2.50
2018,04,22,04,53,2.50
2018,04,22,04,54,2.50
2018,04,22,04,55,2.50
2018,04,22,04,56,2.50
2018,04,22,04,57,2.50
2018,04,22,04,58,2.50
2018,04,22,04,59,2.40
2018,04,22,05,00,2.40
2018,04,22,05,01,2.40
2018,04,22,05,02,2.40
2018,04,22,05,03,2.40
2018,04,22,05,04,2.40
2018,04,22,05,05,2.40
2018,04,22,05,06,2.40
2018,04,22,05,07,2.40
2018,04,22,05,08,2.40
2018,04,22,05,09,2.40
2018,04,22,05,10,2.40
2018,04,22,05,11,2.40
2018,04,22,05,12,2.40
2018,04,22,05,13,2.30
2018,04,22,05,14,2.30
2018,04,22,05,15,2.30
2018,04,22,05,16,2.30
2018,04,22,05,17,2.30
2018,04,22,05,18,2.30
2018,04,22,05,19,2.30
2018,04,22,05,20,2.30
2018,04,22,05,21,2.30
2018,04,22,05,22,2.30
2018,04,22,05,23,2.30
2018,04,22,05,24,2.30
2018,04,22,05,25,2.20
2018,04,22,05,26,2.20
2018,04,22,05,27,2.20
2018,04,22,05,28,2.20
2018,04,22,05,29,2.20
2018,04,22,05,30,2.20
2018,04,22,05,31,2.20
2018,04,22,05,32,2.30
2018,04,22,05,33,2.30
2018,04,22,05,34,2.30
2018,04,22,05,35,2.20
2018,04,22,05,36,2.20
2018,04,22,05,37,2.20
2018,04,22,05,38,2.20
2018,04,22,05,39,2.20
2018,04,22,05,40,2.20
2018,04,22,05,41,2.20
2018,04,22,05,42,2.20
2018,04,22,05,43,2.20
2018,04,22,05,44,2.20
2018,04,22,05,45,2.20
2018,04,22,05,46,2.20
2018,04,22,05,47,2.20
2018,04,22,05,48,2.20
2018,04,22,05,49,2.20
2018,04,22,05,50,2.10
2018,04,22,05,51,2.10
2018,04,22,05,52,2.10
2018,04,22,05,53,2.10
2018,04,22,05,54,2.20
2018,04,22,05,55,2.20
2018,04,22,05,56,2.20
2018,04,22,05,57,2.20
2018,04,22,05,58,2.20
2018,04,22,05,59,2.20
2018,04,22,06,00,2.20
2018,04,22,06,01,2.20
2018,04,22,06,02,2.20
2018,04,22,06,03,2.20
2018,04,22,06,04,2.20
2018,04,22,06,05,2.20
2018,04,22,06,06,2.10
2018,04,22,06,07,2.10
2018,04,22,06,08,2.10
2018,04,22,06,09,2.10
2018,04,22,06,10,2.10
2018,04,22,06,11,2.10
2018,04,22,06,12,2.10
2018,04,22,06,13,2.10
2018,04,22,06,14,2.10
2018,04,22,06,15,2.10
2018,04,22,06,16,2.10
2018,04,22,06,17,2.10
2018,04,22,06,18,2.20
2018,04,22,06,19,2.20
2018,04,22,06,20,2.20
2018,04,22,06,21,2.20
2018,04,22,06,22,2.20
2018,04,22,06,23,2.20
2018,04,22,06,24,2.20
2018,04,22,06,25,2.20
2018,04,22,06,26,2.20
2018,04,22,06,27,2.20
2018,04,22,06,28,2.20
2018,04,22,06,29,2.20
2018,04,22,06,30,2.20
2018,04,22,06,31,2.20
2018,04,22,06,32,2.20
2018,04,22,06,33,2.20
2018,04,22,06,34,2.20
2018,04,22,06,35,2.20
2018,04,22,06,36,2.20
2018,04,22,06,37,2.20
2018,04,22,06,38,2.20
2018,04,22,06,39,2.20
2018,04,22,06,40,2.20
2018,04,22,06,41,2.20
2018,04,22,06,42,2.20
2018,04,22,06,43,2.20
2018,04,22,06,44,2.20
2018,04,22,06,45,2.20
2018,04,22,06,46,2.20
2018,04,22,06,47,2.20
2018,04,22,06,48,2.20
2018,04,22,06,49,2.20
2018,04,22,06,50,2.20
2018,04,22,06,51,2.20
2018,04,22,06,52,2.20
2018,04,22,06,53,2.20
2018,04,22,06,54,2.30
2018,04,22,06,55,2.30
2018,04,22,06,56,2.30
2018,04,22,06,57,2.30
2018,04,22,06,58,2.30
2018,04,22,06,59,2.30
2018,04,22,07,00,2.30
2018,04,22,07,01,2.30
2018,04,22,07,02,2.30
2018,04,22,07,03,2.20
2018,04,22,07,04,2.20
2018,04,22,07,05,2.20
2018,04,22,07,06,2.20
2018,04,22,07,07,2.20
2018,04,22,07,08,2.20
2018,04,22,07,09,2.20
2018,04,22,07,10,2.20
2018,04,22,07,11,2.20
2018,04,22,07,12,2.20
2018,04,22,07,13,2.20
2018,04,22,07,14,2.20
2018,04,22,07,15,2.20
2018,04,22,07,16,2.20
2018,04,22,07,17,2.30
2018,04,22,07,18,2.30
2018,04,22,07,19,2.30
2018,04,22,07,20,2.30
2018,04,22,07,21,2.30
2018,04,22,07,22,2.30
2018,04,22,07,23,2.40
2018,04,22,07,24,2.40
2018,04,22,07,25,2.40
2018,04,22,07,26,2.40
2018,04,22,07,27,2.40
2018,04,22,07,28,2.50
2018,04,22,07,29,2.50
2018,04,22,07,30,2.50
2018,04,22,07,31,2.50
2018,04,22,07,32,2.50
2018,04,22,07,33,2.50
2018,04,22,07,34,2.50
2018,04,22,07,35,2.50
2018,04,22,07,36,2.60
2018,04,22,07,37,2.60
2018,04,22,07,38,2.60
2018,04,22,07,39,2.60
2018,04,22,07,40,2.60
2018,04,22,07,41,2.60
2018,04,22,07,42,2.60
2018,04,22,07,43,2.60
2018,04,22,07,44,2.60
2018,04,22,07,45,2.60
2018,04,22,07,46,2.60
2018,04,22,07,47,2.60
2018,04,22,07,48,2.60
2018,04,22,07,49,2.60
2018,04,22,07,50,2.60
2018,04,22,07,51,2.60
2018,04,22,07,52,2.60
2018,04,22,07,53,2.60
2018,04,22,07,54,2.60
2018,04,22,07,55,2.60
2018,04,22,07,56,2.60
2018,04,22,07,57,2.70
2018,04,22,07,58,2.70
2018,04,22,07,59,2.70
2018,04,22,08,00,2.70
2018,04,22,08,01,2.70
2018,04,22,08,02,2.70
2018,04,22,08,03,2.70
2018,04,22,08,04,2.70
2018,04,22,08,05,2.80
2018,04,22,08,06,2.80
2018,04,22,08,07,2.80
2018,04,22,08,08,2.80
2018,04,22,08,09,2.80
2018,04,22,08,10,2.90
2018,04,22,08,11,2.90
2018,04,22,08,12,2.90
2018,04,22,08,13,2.90
2018,04,22,08,14,3.00
2018,04,22,08,15,3.00
2018,04,22,08,16,3.00
2018,04,22,08,17,3.10
2018,04,22,08,18,3.10
2018,04,22,08,19,3.20
2018,04,22,08,20,3.30
2018,04,22,08,21,3.30
2018,04,22,08,22,3.40
2018,04,22,08,23,3.40
2018,04,22,08,24,3.50
2018,04,22,08,25,3.50
2018,04,22,08,26,3.60
2018,04,22,08,27,3.60
2018,04,22,08,28,3.70
2018,04,22,08,29,3.80
2018,04,22,08,30,3.80
2018,04,22,08,31,3.90
2018,04,22,08,32,4.00
2018,04,22,08,33,4.10
2018,04,22,08,34,4.10
2018,04,22,08,35,4.20
2018,04,22,08,36,4.20
2018,04,22,08,37,4.30
2018,04,22,08,38,4.40
2018,04,22,08,39,4.40
2018,04,22,08,40,4.50
2018,04,22,08,41,4.60
2018,04,22,08,42,4.60
2018,04,22,08,43,4.70
2018,04,22,08,44,4.70
2018,04,22,08,45,4.80
2018,04,22,08,46,4.80
2018,04,22,08,47,4.90
2018,04,22,08,48,5.00
2018,04,22,08,49,5.00
2018,04,22,08,50,5.10
2018,04,22,08,51,5.20
2018,04,22,08,52,5.30
2018,04,22,08,53,5.30
2018,04,22,08,54,5.30
2018,04,22,08,55,5.40
2018,04,22,08,56,5.30
2018,04,22,08,57,5.40
2018,04,22,08,58,5.40
2018,04,22,08,59,5.40
2018,04,22,09,00,5.50
2018,04,22,09,01,5.50
2018,04,22,09,02,5.60
2018,04,22,09,03,5.60
2018,04,22,09,04,5.50
2018,04,22,09,05,5.50
2018,04,22,09,06,5.60
2018,04,22,09,07,5.60
2018,04,22,09,08,5.60
2018,04,22,09,09,5.70
2018,04,22,09,10,5.70
2018,04,22,09,11,5.70
2018,04,22,09,12,5.80
2018,04,22,09,13,5.80
2018,04,22,09,14,5.80
2018,04,22,09,15,5.80
2018,04,22,09,16,5.90
2018,04,22,09,17,5.90
2018,04,22,09,18,5.90
2018,04,22,09,19,5.90
2018,04,22,09,20,5.80
2018,04,22,09,21,5.80
2018,04,22,09,22,5.80
2018,04,22,09,23,5.80
2018,04,22,09,24,5.80
2018,04,22,09,25,5.80
2018,04,22,09,26,5.80
2018,04,22,09,27,5.80
2018,04,22,09,28,5.80
2018,04,22,09,29,5.90
2018,04,22,09,30,5.90
2018,04,22,09,31,5.90
2018,04,22,09,32,6.00
2018,04,22,09,33,6.00
2018,04,22,09,34,6.10
2018,04,22,09,35,6.10
2018,04,22,09,36,6.20
2018,04,22,09,37,6.30
2018,04,22,09,38,6.40
2018,04,22,09,39,6.40
2018,04,22,09,40,6.40
2018,04,22,09,41,6.40
2018,04,22,09,42,6.40
2018,04,22,09,43,6.40
2018,04,22,09,44,6.40
2018,04,22,09,45,6.50
2018,04,22,09,46,6.60
2018,04,22,09,47,6.50
2018,04,22,09,48,6.50
2018,04,22,09,49,6.40
2018,04,22,09,50,6.40
2018,04,22,09,51,6.40
2018,04,22,09,52,6.40
2018,04,22,09,53,6.40
2018,04,22,09,54,6.40
2018,04,22,09,55,6.40
2018,04,22,09,56,6.40
2018,04,22,09,57,6.40
2018,04,22,09,58,6.40
2018,04,22,09,59,6.40
2018,04,22,10,00,6.40
2018,04,22,10,01,6.50
2018,04,22,10,02,6.60
2018,04,22,10,03,6.60
2018,04,22,10,04,6.50
2018,04,22,10,05,6.50
2018,04,22,10,06,6.60
2018,04,22,10,07,6.70
2018,04,22,10,08,6.80
2018,04,22,10,09,6.90
2018,04,22,10,10,6.90
2018,04,22,10,11,6.90
2018,04,22,10,12,6.90
2018,04,22,10,13,6.80
2018,04,22,10,14,6.80
2018,04,22,10,15,6.80
2018,04,22,10,16,6.80
2018,04,22,10,17,6.80
2018,04,22,10,18,6.80
2018,04,22,10,19,6.80
2018,04,22,10,20,6.80
2018,04,22,10,21,6.70
2018,04,22,10,22,6.80
2018,04,22,10,23,6.70
2018,04,22,10,24,6.70
2018,04,22,10,25,6.60
2018,04,22,10,26,6.60
2018,04,22,10,27,6.60
2018,04,22,10,28,6.60
2018,04,22,10,29,6.60
2018,04,22,10,30,6.60
2018,04,22,10,31,6.70
2018,04,22,10,32,6.70
2018,04,22,10,33,6.80
2018,04,22,10,34,6.80
2018,04,22,10,35,6.90
2018,04,22,10,36,7.00
2018,04,22,10,37,7.00
2018,04,22,10,38,7.10
2018,04,22,10,39,7.10
2018,04,22,10,40,7.10
2018,04,22,10,41,7.20
2018,04,22,10,42,7.30
2018,04,22,10,43,7.30
2018,04,22,10,44,7.40
2018,04,22,10,45,7.40
2018,04,22,10,46,7.50
2018,04,22,10,47,7.70
2018,04,22,10,48,7.80
2018,04,22,10,49,7.90
2018,04,22,10,50,7.90
2018,04,22,10,51,8.00
2018,04,22,10,52,8.10
2018,04,22,10,53,8.00
2018,04,22,10,54,8.00
2018,04,22,10,55,8.00
2018,04,22,10,56,8.10
2018,04,22,10,57,8.20
2018,04,22,10,58,8.20
2018,04,22,10,59,8.30
2018,04,22,11,00,8.40
2018,04,22,11,01,8.50
2018,04,22,11,02,8.70
2018,04,22,11,03,8.80
2018,04,22,11,04,8.80
2018,04,22,11,05,8.80
2018,04,22,11,06,8.80
2018,04,22,11,07,8.80
2018,04,22,11,08,8.80
2018,04,22,11,09,8.80
2018,04,22,11,10,8.80
2018,04,22,11,11,8.80
2018,04,22,11,12,8.80
2018,04,22,11,13,8.80
2018,04,22,11,14,8.70
2018,04,22,11,15,8.70
2018,04,22,11,16,8.70
2018,04,22,11,17,8.70
2018,04,22,11,18,8.80
2018,04,22,11,19,8.80
2018,04,22,11,20,8.70
2018,04,22,11,21,8.70
2018,04,22,11,22,8.80
2018,04,22,11,23,8.80
2018,04,22,11,24,8.90
2018,04,22,11,25,8.90
2018,04,22,11,26,9.00
2018,04,22,11,27,9.00
2018,04,22,11,28,8.90
2018,04,22,11,29,8.90
2018,04,22,11,30,9.00
2018,04,22,11,31,9.00
2018,04,22,11,32,9.10
2018,04,22,11,33,9.20
2018,04,22,11,34,9.20
2018,04,22,11,35,9.30
2018,04,22,11,36,9.30
2018,04,22,11,37,9.30
2018,04,22,11,38,9.40
2018,04,22,11,39,9.40
2018,04,22,11,40,9.40
2018,04,22,11,41,9.50
2018,04,22,11,42,9.60
2018,04,22,11,43,9.70
2018,04,22,11,44,9.70
2018,04,22,11,45,9.70
2018,04,22,11,46,9.80
2018,04,22,11,47,9.80
2018,04,22,11,48,9.90
2018,04,22,11,49,9.90
2018,04,22,11,50,10.00
2018,04,22,11,51,10.00
2018,04,22,11,52,9.90
2018,04,22,11,53,10.00
2018,04,22,11,54,10.00
2018,04,22,11,55,10.00
2018,04,22,11,56,9.90
2018,04,22,11,57,9.90
2018,04,22,11,58,9.90
2018,04,22,11,59,9.90
2018,04,22,12,00,9.90
2018,04,22,12,01,10.00
2018,04,22,12,02,10.10
2018,04,22,12,03,10.20
2018,04,22,12,04,10.30
2018,04,22,12,05,10.30
2018,04,22,12,06,10.30
2018,04,22,12,07,10.40
2018,04,22,12,08,10.40
2018,04,22,12,09,10.50
2018,04,22,12,10,10.60
2018,04,22,12,11,10.50
2018,04,22,12,12,10.40
2018,04,22,12,13,10.30
2018,04,22,12,14,10.30
2018,04,22,12,15,10.30
2018,04,22,12,16,10.30
2018,04,22,12,17,10.30
2018,04,22,12,18,10.30
2018,04,22,12,19,10.30
2018,04,22,12,20,10.40
2018,04,22,12,21,10.40
2018,04,22,12,22,10.50
2018,04,22,12,23,10.40
2018,04,22,12,24,10.40
2018,04,22,12,25,10.40
2018,04,22,12,26,10.50
2018,04,22,12,27,10.60
2018,04,22,12,28,10.60
2018,04,22,12,29,10.60
2018,04,22,12,30,10.60
2018,04,22,12,31,10.70
2018,04,22,12,32,10.70
2018,04,22,12,33,10.70
2018,04,22,12,34,10.70
2018,04,22,12,35,10.70
2018,04,22,12,36,10.70
2018,04,22,12,37,10.70
2018,04,22,12,38,10.70
2018,04,22,12,39,10.70
2018,04,22,12,40,10.80
2018,04,22,12,41,10.90
2018,04,22,12,42,10.90
2018,04,22,12,43,11.00
2018,04,22,12,44,11.10
2018,04,22,12,45,11.10
2018,04,22,12,46,11.10
2018,04,22,12,47,11.10
2018,04,22,12,48,11.10
2018,04,22,12,49,11.10
2018,04,22,12,50,11.10
2018,04,22,12,51,11.10
2018,04,22,12,52,11.10
2018,04,22,12,53,11.10
2018,04,22,12,54,11.10
2018,04,22,12,55,11.10
2018,04,22,12,56,11.10
2018,04,22,12,57,11.10
2018,04,22,12,58,11.10
2018,04,22,12,59,11.10
2018,04,22,13,00,11.10
2018,04,22,13,01,11.20
2018,04,22,13,02,11.20
2018,04,22,13,03,11.20
2018,04,22,13,04,11.20
2018,04,22,13,05,11.20
2018,04,22,13,06,11.10
2018,04,22,13,07,11.10
2018,04,22,13,08,11.10
2018,04,22,13,09,11.10
2018,04,22,13,10,11.10
2018,04,22,13,11,11.10
2018,04,22,13,12,11.00
2018,04,22,13,13,11.00
2018,04,22,13,14,11.00
2018,04,22,13,15,11.00
2018,04,22,13,16,11.10
2018,04,22,13,17,11.10
2018,04,22,13,18,11.10
2018,04,22,13,19,11.10
2018,04,22,13,20,11.20
2018,04,22,13,21,11.30
2018,04,22,13,22,11.30
2018,04,22,13,23,11.30
2018,04,22,13,24,11.30
2018,04,22,13,25,11.40
2018,04,22,13,26,11.40
2018,04,22,13,27,11.40
2018,04,22,13,28,11.50
2018,04,22,13,29,11.60
2018,04,22,13,30,11.60
2018,04,22,13,31,11.60
2018,04,22,13,32,11.70
2018,04,22,13,33,11.70
2018,04,22,13,34,11.80
2018,04,22,13,35,11.80
2018,04,22,13,36,11.80
2018,04,22,13,37,11.80
2018,04,22,13,38,11.80
2018,04,22,13,39,11.90
2018,04,22,13,40,11.90
2018,04,22,13,41,11.90
2018,04,22,13,42,11.90
2018,04,22,13,43,12.00
2018,04,22,13,44,12.00
2018,04,22,13,45,12.10
2018,04,22,13,46,12.20
2018,04,22,13,47,12.30
2018,04,22,13,48,12.30
2018,04,22,13,49,12.30
2018,04,22,13,50,12.20
2018,04,22,13,51,12.20
2018,04,22,13,52,12.20
2018,04,22,13,53,12.20
2018,04,22,13,54,12.10
2018,04,22,13,55,12.10
2018,04,22,13,56,12.00
2018,04,22,13,57,11.90
2018,04,22,13,58,12.00
2018,04,22,13,59,12.00
2018,04,22,14,00,12.10
2018,04,22,14,01,12.30
2018,04,22,14,02,12.40
2018,04,22,14,03,12.40
2018,04,22,14,04,12.50
2018,04,22,14,05,12.50
2018,04,22,14,06,12.60
2018,04,22,14,07,12.60
2018,04,22,14,08,12.60
2018,04,22,14,09,12.50
2018,04,22,14,10,12.50
2018,04,22,14,11,12.60
2018,04,22,14,12,12.60
2018,04,22,14,13,12.60
2018,04,22,14,14,12.60
2018,04,22,14,15,12.60
2018,04,22,14,16,12.50
2018,04,22,14,17,12.40
2018,04,22,14,18,12.30
2018,04,22,14,19,12.20
2018,04,22,14,20,12.20
2018,04,22,14,21,12.20
2018,04,22,14,22,12.20
2018,04,22,14,23,12.20
2018,04,22,14,24,12.30
2018,04,22,14,25,12.30
2018,04,22,14,26,12.30
2018,04,22,14,27,12.40
2018,04,22,14,28,12.50
2018,04,22,14,29,12.60
2018,04,22,14,30,12.60
2018,04,22,14,31,12.50
2018,04,22,14,32,12.50
2018,04,22,14,33,12.40
2018,04,22,14,34,12.40
2018,04,22,14,35,12.40
2018,04,22,14,36,12.40
2018,04,22,14,37,12.40
2018,04,22,14,38,12.50
2018,04,22,14,39,12.60
2018,04,22,14,40,12.70
2018,04,22,14,41,12.80
2018,04,22,14,42,12.90
2018,04,22,14,43,12.90
2018,04,22,14,44,12.90
2018,04,22,14,45,12.90
2018,04,22,14,46,12.90
2018,04,22,14,47,13.00
2018,04,22,14,48,13.00
2018,04,22,14,49,13.00
2018,04,22,14,50,13.00
2018,04,22,14,51,13.10
2018,04,22,14,52,13.20
2018,04,22,14,53,13.30
2018,04,22,14,54,13.30
2018,04,22,14,55,13.30
2018,04,22,14,56,13.30
2018,04,22,14,57,13.30
2018,04,22,14,58,13.30
2018,04,22,14,59,13.30
2018,04,22,15,00,13.30
2018,04,22,15,01,13.30
2018,04,22,15,02,13.30
2018,04,22,15,03,13.30
2018,04,22,15,04,13.20
2018,04,22,15,05,13.20
2018,04,22,15,06,13.20
2018,04,22,15,07,13.10
2018,04,22,15,08,13.10
2018,04,22,15,09,13.00
2018,04,22,15,10,12.90
2018,04,22,15,11,12.90
2018,04,22,15,12,12.90
2018,04,22,15,13,12.90
2018,04,22,15,14,12.90
2018,04,22,15,15,13.00
2018,04,22,15,16,13.00
2018,04,22,15,17,13.10
2018,04,22,15,18,13.10
2018,04,22,15,19,13.10
2018,04,22,15,20,13.10
2018,04,22,15,21,13.10
2018,04,22,15,22,13.10
2018,04,22,15,23,13.10
2018,04,22,15,24,13.10
2018,04,22,15,25,13.10
2018,04,22,15,26,13.10
2018,04,22,15,27,13.10
2018,04,22,15,28,13.10
2018,04,22,15,29,13.10
2018,04,22,15,30,13.20
2018,04,22,15,31,13.20
2018,04,22,15,32,13.20
2018,04,22,15,33,13.30
2018,04,22,15,34,13.40
2018,04,22,15,35,13.40
2018,04,22,15,36,13.40
2018,04,22,15,37,13.40
2018,04,22,15,38,13.30
2018,04,22,15,39,13.30
2018,04,22,15,40,13.40
2018,04,22,15,41,13.40
2018,04,22,15,42,13.50
2018,04,22,15,43,13.50
2018,04,22,15,44,13.60
2018,04,22,15,45,13.60
2018,04,22,15,46,13.70
2018,04,22,15,47,13.70
2018,04,22,15,48,13.70
2018,04,22,15,49,13.70
2018,04,22,15,50,13.80
2018,04,22,15,51,13.80
2018,04,22,15,52,13.80
2018,04,22,15,53,13.70
2018,04,22,15,54,13.70
2018,04,22,15,55,13.70
2018,04,22,15,56,13.80
2018,04,22,15,57,13.80
2018,04,22,15,58,13.80
2018,04,22,15,59,13.90
2018,04,22,16,00,13.90
2018,04,22,16,01,14.00
2018,04,22,16,02,14.00
2018,04,22,16,03,14.00
2018,04,22,16,04,14.00
2018,04,22,16,05,14.00
2018,04,22,16,06,14.10
2018,04,22,16,07,14.10
2018,04,22,16,08,14.10
2018,04,22,16,09,14.10
2018,04,22,16,10,14.10
2018,04,22,16,11,14.20
2018,04,22,16,12,14.20
2018,04,22,16,13,14.30
2018,04,22,16,14,14.30
2018,04,22,16,15,14.30
2018,04,22,16,16,14.30
2018,04,22,16,17,14.30
2018,04,22,16,18,14.40
2018,04,22,16,19,14.40
2018,04,22,16,20,14.40
2018,04,22,16,21,14.40
2018,04,22,16,22,14.30
2018,04,22,16,23,14.30
2018,04,22,16,24,14.30
2018,04,22,16,25,14.30
2018,04,22,16,26,14.20
2018,04,22,16,27,14.20
2018,04,22,16,28,14.30
2018,04,22,16,29,14.30
2018,04,22,16,30,14.30
2018,04,22,16,31,14.30
2018,04,22,16,32,14.30
2018,04,22,16,33,14.30
2018,04,22,16,34,14.30
2018,04,22,16,35,14.30
2018,04,22,16,36,14.40
2018,04,22,16,37,14.50
2018,04,22,16,38,14.60
2018,04,22,16,39,14.60
2018,04,22,16,40,14.60
2018,04,22,16,41,14.60
2018,04,22,16,42,14.60
2018,04,22,16,43,14.70
2018,04,22,16,44,14.70
2018,04,22,16,45,14.70
2018,04,22,16,46,14.70
2018,04,22,16,47,14.70
2018,04,22,16,48,14.60
2018,04,22,16,49,14.60
2018,04,22,16,50,14.60
2018,04,22,16,51,14.70
2018,04,22,16,52,14.70
2018,04,22,16,53,14.80
2018,04,22,16,54,14.80
2018,04,22,16,55,14.80
2018,04,22,16,56,14.80
2018,04,22,16,57,14.80
2018,04,22,16,58,14.80
2018,04,22,16,59,14.70
2018,04,22,17,00,14.70
2018,04,22,17,01,14.70
2018,04,22,17,02,14.70
2018,04,22,17,03,14.70
2018,04,22,17,04,14.70
2018,04,22,17,05,14.70
2018,04,22,17,06,14.80
2018,04,22,17,07,14.80
2018,04,22,17,08,14.90
2018,04,22,17,09,14.90
2018,04,22,17,10,15.00
2018,04,22,17,11,15.00
2018,04,22,17,12,15.00
2018,04,22,17,13,15.10
2018,04,22,17,14,15.10
2018,04,22,17,15,15.20
2018,04,22,17,16,15.20
2018,04,22,17,17,15.20
2018,04,22,17,18,15.10
2018,04,22,17,19,15.10
2018,04,22,17,20,15.00
2018,04,22,17,21,15.00
2018,04,22,17,22,15.00
2018,04,22,17,23,15.00
2018,04,22,17,24,15.00
2018,04,22,17,25,15.00
2018,04,22,17,26,15.00
2018,04,22,17,27,14.90
2018,04,22,17,28,14.70
2018,04,22,17,29,14.60
2018,04,22,17,30,14.50
2018,04,22,17,31,14.50
2018,04,22,17,32,14.50
2018,04,22,17,33,14.60
2018,04,22,17,34,14.60
2018,04,22,17,35,14.50
2018,04,22,17,36,14.50
2018,04,22,17,37,14.50
2018,04,22,17,38,14.50
2018,04,22,17,39,14.40
2018,04,22,17,40,14.30
2018,04,22,17,41,14.20
2018,04,22,17,42,14.10
2018,04,22,17,43,14.10
2018,04,22,17,44,14.00
2018,04,22,17,45,13.90
2018,04,22,17,46,13.80
2018,04,22,17,47,13.80
2018,04,22,17,48,13.70
2018,04,22,17,49,13.60
2018,04,22,17,50,13.50